weather.gov     
National Weather Service

Regional Weather Roundup
NWS Homepage
This page is being discontinued on March 12, 2014.
The same data is available at this site. Please update your bookmarks.
Thank you, and we apologize for the inconvenience.
Please send an email to SR-SRH.Webmaster@noaa.gov with any concerns.


Current Version
Previous Version:    01  02  03  04  05  06  07  08  09  10  11  12  13  14  15  16  17  18  19  20  21  22  23  24  25  26  
[Printable]
260
ASPQ40 PGUM 231912
RWRPQ
WEATHER ROUNDUP FOR THE MARIANAS AND MICRONESIA
NATIONAL WEATHER SERVICE TIYAN GU
500 AM CHST SUN AUG 24 2014

GUZ001>004-232000-
MARIANA ISLANDS-

CITY           SKY/WX    TMP DP  RH WIND       PRES   REMARKS
GUAM AIRPORT   CLEAR     81  79  94 E7        29.85S
ANDERSEN AFB   PTCLDY    79  75  89 E3        29.86R
ROTA AIRPORT   NOT AVBL
TINIAN AP      NOT AVBL
SAIPAN AP      PTCLDY    79  77  94 E5        29.85S

$$

PMZ161-232000-
REPUBLIC OF PALAU-

CITY           SKY/WX    TMP DP  RH WIND       PRES   REMARKS
KOROR AP       LGT RAIN  81  81 100 W5        29.82F HX  91
KOROR WSO      CLOUDY    75  73  94 CALM      29.82F

$$

PMZ171>174-232000-
FEDERATED STATES OF MICRONESIA-

CITY           SKY/WX    TMP DP  RH WIND       PRES   REMARKS
YAP AIRPORT    MOCLDY    75  73  94 CALM      29.79S
CHUUK AP       CLOUDY    77  77 100 VRB3      29.81S
POHNPEI AP     NOT AVBL
POHNPEI WSO    MOCLDY    75  73  94 SE3       29.84S
KOSRAE AP      NOT AVBL

$$

PMZ181-232000-
REPUBLIC OF THE MARSHALL ISLANDS-

CITY           SKY/WX    TMP DP  RH WIND       PRES   REMARKS
KWAJALEIN AP   CLEAR     81  72  74 E9        29.83S
MAJURO AP      NOT AVBL
MAJURO WSO     CLOUDY    82  75  78 E6        29.81

$$





U.S. Dept. of Commerce
NOAA National Weather Service
1325 East West Highway
Silver Spring, MD 20910
E-mail: w-nws.webmaster@noaa.gov
Page last modified: May 16, 2007
NATIONAL WEATHER SERVICE: for Safety, for Work, for Fun - FOR LIFE